Theta_e
301 302 302 302 303 303 303 303 303 304 310 314 315 315 313 310 312 313 317 318 319 321 321 321 321 322 322 322 322 323 323 323 321 322 323 323 323 328 331 332 334 336 338 339 341 339 340 333 332 338 343 341 339 339
301 301 302 302 303 303 303 303 302 303 308 314 315 314 310 310 313 314 316 317 318 319 320 318 319 320 320 320 322 323 323 323 325 324 325 331 332 328 333 333 331 333 336 337 336 340 334 335 339 338 336 336 337 337
301 301 302 302 303 303 303 303 303 303 308 313 314 313 309 312 313 314 315 317 316 318 319 320 320 319 319 318 318 320 321 322 322 323 322 328 331 326 328 333 333 331 331 334 332 334 332 329 335 337 334 337 336 339
302 302 301 302 302 302 303 303 303 303 308 313 313 311 310 313 314 314 315 316 316 317 320 322 321 321 320 319 319 318 319 320 321 321 322 322 323 324 326 328 329 327 329 331 332 329 328 332 333 335 334 335 337 337
301 301 301 302 303 302 303 303 302 304 308 312 313 308 310 314 314 314 314 316 316 317 321 322 320 319 318 318 318 318 317 319 320 321 321 320 320 322 324 324 324 328 328 329 333 330 331 334 334 334 335 334 332 332
301 301 301 302 303 302 303 303 302 305 309 312 312 306 310 314 315 314 317 316 316 315 318 322 319 319 317 315 315 318 318 319 320 321 321 321 321 322 324 323 327 326 327 325 326 327 329 334 329 327 332 332 328 327
300 301 301 302 303 302 303 303 303 307 312 312 309 307 311 313 313 316 316 313 315 315 318 321 319 319 317 317 317 318 317 319 320 320 320 320 320 321 322 323 326 324 325 326 327 330 333 333 332 331 332 329 327 329
301 301 301 303 303 302 303 302 304 310 312 307 306 309 312 314 313 314 314 312 313 315 316 321 321 320 318 318 319 319 319 319 320 320 320 321 321 321 324 325 326 327 327 326 330 331 332 331 329 326 328 331 332 329
302 302 302 303 302 302 302 302 308 310 306 306 310 312 311 311 312 315 314 312 313 315 319 320 322 327 319 319 319 320 319 321 320 321 321 320 321 322 328 328 332 331 328 327 329 325 325 328 327 325 325 329 330 328
302 302 303 303 302 302 302 305 309 305 306 311 311 312 314 314 314 313 313 316 316 317 318 320 321 322 321 320 322 322 320 320 321 322 321 321 325 326 322 332 332 332 330 328 328 326 325 327 329 330 330 329 326 326
302 303 303 302 302 302 303 307 303 308 310 311 312 316 315 313 313 316 319 319 319 319 318 318 319 321 319 321 322 321 324 325 328 327 325 331 332 328 328 331 332 330 329 328 327 323 321 321 323 324 326 329 325 325
303 303 303 302 302 302 305 304 305 309 311 312 314 314 313 315 317 317 318 317 318 319 319 319 320 321 321 321 323 324 324 326 329 327 327 327 326 326 330 330 332 331 331 326 327 328 325 321 321 323 326 327 329 327
303 302 302 302 302 304 307 304 308 310 312 313 315 316 316 316 318 317 318 319 318 318 320 320 320 319 320 320 321 322 324 329 326 330 332 329 330 328 329 329 331 330 331 330 331 328 328 324 323 319 321 325 325 323
302 303 302 302 305 308 304 304 309 311 313 315 316 317 317 316 316 316 317 318 320 319 320 320 320 319 319 319 319 323 321 326 329 327 330 331 328 327 327 327 327 328 328 330 329 329 330 332 329 329 331 330 329 330
302 302 303 305 307 305 304 307 310 311 314 316 315 319 316 316 315 315 319 321 321 319 319 319 321 319 318 320 320 321 324 322 329 331 328 329 327 326 326 326 327 328 329 330 330 329 328 326 329 325 321 327 326 326
302 305 305 306 305 306 307 310 310 309 312 316 315 314 315 314 314 314 315 318 318 318 319 320 321 321 321 319 322 321 321 328 331 327 324 327 326 326 325 325 325 325 325 326 326 327 328 329 328 328 327 325 324 324
306 305 304 304 304 305 308 309 309 311 314 313 314 314 315 316 315 317 318 319 318 319 319 322 321 319 321 318 320 324 327 327 325 326 327 328 326 325 325 324 323 323 324 324 324 325 325 326 327 328 329 325 325 325
305 303 303 305 307 306 307 308 312 313 313 313 313 315 317 317 318 316 317 319 320 322 322 324 323 321 319 321 326 326 324 324 323 323 324 324 324 325 323 323 321 321 321 323 325 324 323 323 325 330 327 324 325 326
305 303 304 305 307 307 308 310 312 313 311 313 312 312 314 315 315 315 316 316 317 318 319 319 319 320 324 324 324 324 326 323 322 321 320 325 323 321 317 317 319 320 321 323 325 326 325 323 323 323 325 323 324 322
305 306 307 307 309 310 311 311 312 311 312 313 313 313 313 314 314 314 314 315 316 317 317 317 318 321 320 320 319 317 316 318 318 318 317 315 313 315 317 320 322 324 323 324 325 325 326 324 322 318 319 321 324 324
306 306 306 306 309 310 312 311 312 313 313 313 313 313 313 313 313 313 314 314 314 315 315 315 316 316 315 314 314 314 315 316 317 317 315 314 313 315 320 321 321 323 327 327 328 325 324 321 318 315 316 316 319 322
306 307 307 307 308 310 311 311 311 312 313 312 312 312 312 312 312 313 313 312 313 313 314 314 314 316 316 316 315 314 313 314 314 314 313 314 320 321 320 321 321 325 324 324 324 323 321 321 321 319 319 320 320 319
306 307 306 306 307 309 312 312 312 313 312 312 311 312 312 312 313 312 313 314 315 315 315 316 317 317 319 318 318 318 317 318 319 318 319 319 320 319 320 319 320 318 316 319 320 319 319 319 319 319 321 320 319 319
306 307 308 308 308 310 311 312 311 312 311 312 312 313 314 315 313 315 316 320 318 319 318 323 321 321 321 322 322 323 321 320 321 321 321 321 322 320 320 320 319 317 314 316 318 319 318 318 318 318 318 318 319 319
306 307 308 305 309 310 310 311 311 311 312 311 313 316 315 316 317 317 318 318 320 322 323 322 322 324 324 323 322 320 321 321 323 322 317 318 320 317 318 317 315 315 316 316 314 315 315 315 314 314 316 317 317 318
307 307 310 309 310 310 310 310 311 312 313 315 315 313 312 314 315 316 314 313 318 321 323 323 324 324 325 323 324 324 321 318 318 319 316 314 315 317 316 317 317 312 312 311 310 311 310 309 310 310 312 315 315 315
311 309 308 308 309 310 311 312 312 312 312 313 312 311 310 311 314 316 315 316 317 315 316 317 318 317 320 318 319 320 320 318 318 317 315 314 314 313 313 313 311 309 310 309 308 309 308 307 307 308 309 309 310 311
307 308 308 306 307 307 309 310 312 312 312 311 312 314 314 315 315 315 314 312 314 315 314 314 315 314 314 314 313 313 312 312 313 315 316 314 312 311 310 309 309 308 308 307 307 306 306 306 306 307 307 308 308 307
307 305 305 306 305 304 306 309 311 313 313 312 315 315 315 314 314 313 315 315 314 314 314 313 312 312 312 312 312 310 309 309 310 312 312 312 311 309 308 308 308 307 307 307 305 305 305 306 306 306 307 307 306 306
311 309 312 313 315 315 316 313 317 316 315 315 315 315 314 313 311 311 311 311 312 312 312 311 310 310 310 310 310 309 308 307 306 306 308 308 307 306 306 306 306 306 306 307 307 307 306 306 305 305 304 303 302 303
317 317 316 316 316 315 314 314 313 314 314 314 314 314 313 313 311 310 309 309 310 309 310 310 310 309 309 309 309 308 308 306 305 304 302 303 304 304 305 306 306 306 306 306 305 304 303 304 303 302 302 301 300 300
316 317 317 318 318 316 315 315 315 315 315 315 314 314 314 314 314 311 309 308 309 309 309 309 309 309 308 308 308 308 307 306 304 302 302 301 301 302 303 304 304 304 304 304 303 302 302 302 301 301 300 300 300 299
317 316 317 317 317 316 316 315 315 314 314 315 315 314 313 314 314 312 310 308 308 308 309 309 309 309 308 307 307 307 306 304 302 301 300 300 300 299 300 301 301 302 302 302 302 301 301 301 301 300 300 299 299 299
Wind_Speed
23 24 22 22 21 20 19 19 19 19 17 14 17 17 16 15 14 11 10 9 11 9 15 20 17 13 11 9 9 8 7 9 6 9 10 10 11 4 6 9 6 5 3 6 6 4 4 11 11 11 9 10 8 8
23 23 22 22 21 19 19 19 20 19 18 14 17 16 16 16 14 12 10 7 11 11 14 25 21 19 17 18 11 9 11 8 5 6 6 6 10 5 7 5 4 2 1 3 5 6 3 5 9 8 7 9 5 6
25 23 22 21 19 18 18 19 20 17 16 14 17 16 16 17 15 15 9 6 9 9 13 18 15 25 28 22 19 10 8 9 4 7 7 8 10 7 4 2 16 4 8 4 6 5 7 4 8 5 5 8 7 3
24 22 22 20 20 19 18 18 19 16 15 14 17 16 16 15 14 14 11 8 8 8 6 3 3 5 9 11 15 16 17 15 8 6 8 8 10 4 4 8 9 4 1 4 11 7 11 3 4 7 7 1 4 4
21 21 21 20 20 19 18 18 17 16 14 14 17 16 17 14 12 11 10 12 9 5 4 9 24 17 13 15 14 12 11 10 8 9 7 9 10 8 8 8 6 5 4 7 6 10 9 5 4 7 7 4 6 8
22 21 20 19 18 18 16 16 17 17 13 15 17 16 17 12 15 6 4 6 11 9 4 4 5 8 10 7 9 12 8 7 8 8 6 9 15 6 7 9 6 5 9 8 9 10 7 4 9 8 9 16 8 8
20 19 19 18 17 16 15 15 13 15 13 15 16 15 18 14 15 5 3 0 5 4 3 5 4 7 9 8 7 8 12 8 7 9 10 10 11 5 9 11 6 5 4 7 8 7 2 3 4 13 13 6 7 11
22 21 19 17 15 14 14 13 13 11 17 16 14 14 12 10 13 8 12 2 5 4 5 4 5 7 13 7 7 7 7 7 8 8 10 9 10 10 9 10 5 3 10 9 13 11 8 5 6 8 9 7 9 9
21 19 17 15 15 13 12 11 10 17 20 18 18 16 10 4 5 5 6 7 7 4 3 5 6 4 7 10 7 6 5 7 6 10 10 10 11 4 5 3 9 10 9 6 7 8 6 6 8 7 9 9 14 14
19 17 15 15 14 13 11 10 19 24 23 23 18 4 2 7 11 8 5 5 5 5 5 6 11 8 7 8 5 4 5 6 6 8 6 8 2 14 22 16 9 10 10 7 7 5 6 6 8 15 11 13 11 6
17 15 14 14 14 12 12 15 26 27 24 8 4 3 8 14 8 4 4 5 6 5 6 8 13 8 4 4 5 3 3 3 8 3 3 3 0 3 4 15 11 9 7 8 10 17 12 9 9 16 14 16 8 6
15 14 14 14 14 13 14 28 32 21 15 9 5 11 10 5 4 4 4 5 6 9 6 10 10 7 1 2 3 3 3 3 2 5 3 2 3 5 6 7 12 12 14 4 5 14 14 3 11 16 15 13 20 18
15 14 15 14 13 16 25 34 34 18 12 11 4 4 3 4 2 6 9 7 6 3 5 7 5 3 1 3 4 3 4 4 1 1 5 6 7 6 3 4 7 12 14 15 15 12 13 26 16 20 20 20 16 15
15 15 14 13 16 24 32 32 30 16 5 3 3 3 5 6 7 8 9 3 4 9 8 6 3 4 3 5 4 4 4 6 5 3 4 5 5 6 8 8 10 9 7 11 12 16 15 13 15 10 15 3 11 10
16 13 12 15 23 29 33 36 20 11 0 2 4 4 7 5 5 5 10 4 10 1 6 4 3 4 4 4 4 2 3 4 5 4 2 4 6 7 8 9 9 10 10 10 13 13 12 13 8 14 10 12 3 3
16 15 12 23 30 29 37 19 12 3 4 4 7 2 2 3 4 2 6 6 5 4 4 1 3 6 6 3 5 6 4 6 4 4 1 1 6 7 8 9 8 7 7 8 12 14 15 15 10 11 14 5 3 1
15 7 23 28 29 26 20 11 6 5 5 3 3 2 6 8 5 3 10 5 1 4 1 3 5 1 3 3 1 4 4 4 4 3 5 7 6 7 7 8 10 12 10 10 12 13 14 14 17 11 7 9 16 4
22 32 31 30 29 23 10 4 5 4 3 0 3 5 3 7 6 4 5 8 7 3 3 1 4 3 1 6 3 7 5 5 3 4 4 2 3 3 6 6 9 12 14 14 15 14 16 15 13 7 13 17 23 9
31 33 33 28 18 6 3 3 5 1 3 3 2 2 1 6 5 5 3 2 1 2 3 3 3 5 4 2 7 4 1 5 7 7 6 5 2 5 8 12 10 14 15 16 14 13 15 10 13 13 14 13 15 20
31 31 30 24 11 2 4 2 2 2 2 3 3 3 1 4 4 2 2 2 3 3 1 2 6 7 6 7 8 7 7 7 7 7 8 8 14 13 12 11 11 17 19 17 17 10 9 10 12 18 20 17 24 20
26 21 16 14 6 4 3 2 2 3 3 1 4 1 3 3 3 1 1 5 3 2 2 4 7 9 9 8 9 9 7 8 7 7 8 9 12 13 14 10 13 15 13 11 6 4 7 8 8 10 20 19 26 25
21 16 5 1 2 2 3 2 0 1 2 3 3 2 1 2 2 4 4 1 3 3 5 7 8 8 7 7 8 10 10 9 9 11 15 14 5 7 10 16 17 12 15 15 13 9 8 3 3 13 9 6 7 11
10 6 4 2 3 3 1 3 2 2 2 2 2 2 2 2 3 1 2 2 4 5 6 5 4 7 9 10 9 9 8 9 9 5 14 15 15 14 12 12 16 14 13 24 13 16 10 9 14 22 7 10 6 10
4 2 1 3 3 1 3 3 1 2 2 3 2 3 2 4 2 3 3 8 7 11 7 10 14 8 6 3 6 6 8 12 15 17 14 10 6 10 12 13 14 12 8 20 8 4 4 7 7 9 12 10 8 8
2 5 2 4 0 2 3 5 4 4 3 3 2 7 4 4 3 2 2 5 8 7 7 9 10 6 6 7 9 10 12 12 9 5 8 10 5 3 6 4 2 3 8 12 14 17 14 13 17 21 21 18 16 15
3 2 2 1 2 1 2 5 3 4 4 5 6 4 4 3 3 3 3 4 6 5 5 5 4 4 5 6 5 5 6 6 5 8 12 14 16 0 5 6 6 15 17 16 18 17 18 20 19 18 12 8 12 12
4 5 3 4 3 2 4 4 6 5 4 3 2 2 2 3 2 3 3 4 3 7 10 8 10 11 4 5 7 6 5 8 8 5 6 6 7 14 13 11 12 15 17 17 18 18 18 19 17 16 15 15 15 9
3 4 2 3 4 3 3 2 2 2 2 3 2 2 2 3 1 2 3 7 9 9 10 6 6 9 11 12 14 13 17 15 11 6 7 2 7 11 15 15 14 15 13 10 14 14 17 14 15 15 15 16 18 17
2 2 2 3 2 1 3 4 4 4 5 4 3 2 3 3 3 4 5 4 5 6 9 7 13 15 13 12 14 18 18 19 17 13 14 10 11 17 18 16 16 16 15 13 8 16 15 13 10 12 17 20 17 17
3 6 4 6 7 6 6 8 8 8 5 10 8 8 6 8 12 10 11 11 11 10 12 13 13 13 14 14 12 16 17 17 18 16 10 10 15 17 16 16 15 14 14 13 13 16 19 18 18 18 18 17 17 17
5 7 15 14 14 11 11 11 13 10 8 8 10 10 7 8 14 14 13 12 11 11 12 12 13 14 14 12 12 12 11 15 16 17 16 14 14 14 15 15 14 13 13 14 17 17 16 15 15 15 16 15 15 16
8 13 12 16 12 8 8 9 8 8 8 7 6 4 2 0 7 11 15 14 13 12 11 12 12 12 13 13 13 10 8 11 12 15 15 14 14 16 16 14 15 15 15 14 13 13 13 13 14 13 13 14 14 14
5 7 11 11 10 8 9 8 8 9 9 8 6 4 4 7 7 7 10 11 12 12 12 10 11 10 10 12 12 11 8 8 9 13 18 18 16 15 17 16 16 14 12 12 11 10 11 12 13 15 16 17 16 15
Wind_Direction
270 269 269 270 271 273 275 280 287 286 254 249 241 235 231 224 216 211 251 265 271 274 282 289 294 290 277 252 271 5 303 221 259 253 267 278 268 334 295 22 345 0 307 320 316 266 296 38 21 329 320 327 342 348
266 266 265 268 269 270 271 274 287 285 251 248 235 231 224 217 210 206 255 255 258 254 277 305 289 279 273 282 293 289 293 296 328 316 346 315 337 324 336 285 75 289 26 296 286 298 259 113 226 262 343 294 335 314
262 263 266 269 267 270 269 270 286 276 256 242 230 222 217 212 208 204 271 289 285 265 273 254 248 250 238 239 247 258 260 294 310 347 301 294 302 288 309 199 245 181 234 264 319 353 332 313 357 26 350 338 343 5
257 258 262 266 268 267 266 264 281 267 255 234 225 214 210 211 207 207 231 297 277 305 279 289 113 206 232 233 227 245 256 265 300 295 283 279 281 271 246 222 258 356 276 300 275 283 316 1 337 344 314 27 68 110
251 257 261 267 267 266 261 259 283 258 253 227 219 207 203 201 196 214 241 265 256 272 302 314 309 271 198 205 219 226 242 246 249 260 235 250 265 301 291 282 243 210 347 263 246 302 303 350 52 26 335 155 125 118
251 255 261 264 261 262 256 257 282 243 245 222 208 199 195 198 190 175 239 223 235 251 289 281 254 220 222 226 229 244 226 227 234 249 268 263 274 272 284 293 55 291 279 263 266 312 343 89 88 17 321 287 121 107
252 255 260 260 257 250 251 259 260 228 226 210 188 190 192 195 179 218 339 356 174 201 245 276 232 182 195 190 199 206 207 220 219 230 241 266 273 248 257 272 170 274 261 280 317 310 97 194 183 189 232 182 191 132
250 252 256 254 246 243 241 260 237 225 197 177 177 175 175 190 203 251 256 224 162 226 266 267 247 187 183 203 192 207 196 211 231 241 255 241 244 230 240 281 134 136 305 301 8 49 33 175 213 246 254 224 62 349
243 247 245 241 236 234 239 241 228 192 161 157 153 147 134 174 195 227 191 187 202 253 279 271 286 319 175 230 215 172 234 216 220 226 231 248 252 237 357 301 317 331 313 312 79 49 24 67 246 266 320 335 124 253
238 234 234 228 225 218 231 217 178 154 151 145 134 143 201 188 157 156 158 193 197 218 221 261 282 269 231 210 202 226 188 233 261 214 239 230 164 19 357 320 315 288 287 282 269 196 102 38 287 265 239 199 193 224
220 223 220 217 209 217 204 188 155 150 148 149 165 204 125 145 177 201 213 205 200 223 211 232 247 281 288 282 271 229 141 343 294 42 321 44 62 276 254 301 327 299 269 259 266 97 97 49 21 313 294 217 177 181
212 214 209 203 205 206 198 166 166 153 171 193 126 127 139 193 203 223 194 221 214 228 188 202 218 223 295 13 278 341 162 143 283 344 334 27 273 261 280 317 334 352 348 327 121 135 95 159 219 252 296 270 161 157
203 204 195 198 204 189 176 173 169 157 151 147 182 158 183 198 193 205 201 213 211 220 187 214 145 224 204 262 254 272 239 140 61 38 341 169 205 184 351 7 1 1 3 1 344 166 180 190 198 61 346 326 42 99
198 188 192 196 184 182 165 170 172 181 196 194 149 191 222 188 207 220 235 288 122 232 152 201 188 215 205 169 255 307 273 156 142 113 191 112 89 53 24 4 7 3 11 333 329 329 351 14 59 110 210 185 170 177
175 177 181 175 170 164 166 171 183 179 264 216 225 226 215 270 232 205 90 344 267 34 160 159 227 216 174 228 226 46 324 258 62 69 117 83 60 48 29 24 14 6 358 348 334 330 331 334 78 124 242 308 7 350
159 149 155 162 157 160 168 158 158 141 324 232 228 241 277 202 183 196 230 201 126 200 220 170 264 125 245 222 201 232 347 33 50 92 80 266 51 29 14 2 355 350 344 329 325 331 330 334 340 333 339 321 298 86
125 120 145 146 153 153 162 130 135 229 238 216 209 287 16 295 250 82 36 38 234 235 274 11 3 355 275 259 112 41 37 129 136 186 114 82 58 13 357 345 346 341 325 310 311 303 300 308 310 313 326 342 306 252
116 139 144 145 133 144 125 186 242 262 246 12 131 114 280 258 187 99 75 48 29 38 49 323 269 266 271 7 25 75 34 326 339 19 83 60 67 349 300 311 317 321 313 310 296 285 290 293 289 295 329 338 340 255
136 143 145 154 133 122 127 238 240 310 13 328 161 235 333 58 38 17 32 82 113 221 261 254 247 36 68 90 59 102 330 353 353 344 347 36 163 301 349 322 326 304 312 312 295 285 298 311 285 322 337 345 291 326
134 142 136 137 140 208 162 127 349 58 253 278 187 171 144 67 67 297 338 341 357 269 248 332 69 67 41 32 21 11 3 358 344 331 334 340 339 333 322 314 343 333 314 303 294 273 257 269 43 28 6 345 303 267
120 137 161 180 227 229 113 144 144 195 244 305 37 114 164 162 213 215 340 52 234 287 303 20 51 78 45 22 351 353 342 2 340 335 322 314 318 319 320 349 347 342 331 325 325 355 76 93 21 18 42 16 343 312
132 139 154 313 22 48 86 318 5 165 277 95 174 264 189 137 142 63 13 282 338 9 20 11 14 7 343 345 338 326 322 316 300 290 276 280 349 355 0 8 1 343 348 355 352 18 16 43 267 268 243 252 323 35
125 170 139 67 49 66 222 225 233 270 151 107 185 146 130 157 62 286 229 29 35 38 15 341 355 290 268 279 276 269 267 273 269 300 21 19 16 4 354 349 17 25 1 351 8 31 351 293 2 338 354 34 20 18
3 44 7 168 136 163 170 157 185 160 147 166 128 113 80 35 9 346 28 55 21 353 7 3 347 348 355 209 324 48 11 6 18 47 40 19 0 2 3 22 17 21 7 312 307 248 19 4 352 354 344 345 343 356
55 350 83 318 31 137 139 150 166 164 140 138 127 53 40 8 8 52 43 11 8 0 16 21 21 26 21 10 14 21 24 26 28 51 5 337 332 316 337 16 50 5 324 324 358 15 14 20 42 39 38 26 19 1
73 84 103 200 156 148 122 134 119 70 66 57 45 39 19 23 42 9 333 328 314 349 355 359 16 27 45 54 54 29 23 55 59 42 38 357 321 32 51 39 22 17 3 13 5 8 7 2 356 354 356 47 42 35
47 48 70 23 332 65 86 65 40 45 57 65 66 54 46 40 11 350 284 253 267 321 332 1 13 325 356 22 108 84 52 53 59 106 105 89 20 15 14 28 39 17 7 16 4 6 3 351 347 351 356 351 352 12
35 32 86 39 62 32 96 90 120 125 121 123 123 71 55 36 20 249 250 294 304 320 325 7 14 355 14 38 38 35 26 15 13 16 166 335 38 43 21 21 25 15 4 11 9 11 2 3 1 5 3 3 19 7
98 128 124 116 118 174 203 182 181 182 158 164 121 92 128 208 236 226 228 240 4 0 330 1 14 15 23 25 44 50 33 25 19 14 9 19 27 19 12 5 3 2 5 2 38 37 15 353 9 16 18 30 20 9
159 186 210 167 139 140 154 180 145 149 159 116 129 144 122 87 49 34 28 38 31 21 23 40 34 17 30 20 24 58 52 41 31 23 358 0 4 2 355 356 4 5 7 4 8 22 17 19 23 25 24 24 21 11
141 131 98 92 87 87 89 94 93 105 112 104 90 83 87 89 69 43 34 22 39 31 16 31 44 25 30 40 33 17 34 44 32 21 11 2 4 0 354 0 7 8 6 17 33 29 18 25 24 24 26 22 20 15
110 102 107 107 104 102 89 100 105 95 85 85 86 103 162 140 71 49 29 24 24 25 32 26 39 40 19 18 15 34 51 45 39 33 30 25 20 13 12 7 8 13 17 21 27 31 22 28 28 21 20 18 19 13
61 61 97 105 108 113 122 104 94 91 82 71 71 60 65 77 60 40 20 33 27 12 3 33 18 36 39 18 15 6 79 92 87 69 56 43 30 31 32 28 24 24 26 25 27 22 18 27 27 24 23 22 16 16